sat.trackr.live / text

‹ back to catalog

STARLINK-32795

NORAD 63042 · 2025-034P

PAYLOAD ACTIVE UNKNOWN

§ Identity

Operator
Country
US
Launch date
2025-02-18
Launch site
AFETR
Launch vehicle
Mass (kg)
RCS (m²)

Purposes: comms

External: N2YO · Heavens-Above · Gunter

§ Orbital elements

Epoch: 2026-05-25T01:32:34.232640Z

Period
93.90 min
Inclination
53.1602°
Eccentricity
0.0000910
Mean motion
15.33564172 rev/d
Perigee alt
464.6 km
Apogee alt
465.8 km
Semi-major
6,843.3 km
B*
1.2794e-3
RAAN
263.1168°
Arg perigee
115.0536°
Mean anomaly
245.0561°
Rev number
7,078

§ Raw data

STARLINK-327951 63042U 25034P   26145.06428510  .00041958  00000+0  12794-2 0  99942 63042  53.1602 263.1168 0000910 115.0536 245.0561 15.33564172 70784

JSON: /api/v1/satellites/63042 · /tle

For live sub-satellite position, see the globe view (requires WebGL).

§ Visibility from observer

Set your observer location to see the next 7 days of passes ≥ 10°. The values pass through the URL so the page stays shareable.

No JS? Fill the form by hand. The geolocation button needs JavaScript.